Monroe, WI

1:53 AM CDT on March 25, 2017 (GMT -0500)
Monroe Municipal

Weather History for KEFT - September, 2013

Change the Weather History Date:

Saturday, September 28, 2013

  Actual Average Record
Temperature  
Mean Temperature 68 °F -  
Max Temperature 81 °F 0 °F 81 °F (2013)
Min Temperature 55 °F - 41 °F (2006)
Cooling Degree Days 4    
Growing Degree Days 18 (Base 50)    
Moisture  
Dew Point 55 °F    
Average Humidity 68    
Maximum Humidity 100    
Minimum Humidity 45    
Precipitation  
Precipitation 0.29 in - - ()
Sea Level Pressure  
Sea Level Pressure 29.96 in    
Wind  
Wind Speed 13 mph (South)    
Max Wind Speed 29 mph    
Max Gust Speed 36 mph    
Visibility 9 miles    
Events Rain    
Averages and records for this station are not official NWS values.
T = Trace of Precipitation, MM = Missing Value Source: NWS Daily Summary

Daily Weather History Graph

Daily Weather History Graph

Search for Another Location

Airport or City:

Trip Planner

Search our weather history database for the weather conditions in past years. The results will help you decide how hot, cold, wet, or windy it might be!

Date:

Astronomy

Sep. 28, 2013 Rise Set
Actual Time 6:52 AM CDT 6:44 PM CDT
Civil Twilight 6:24 AM CDT 7:12 PM CDT
Nautical Twilight 5:51 AM CDT 7:45 PM CDT
Astronomical Twilight 5:18 AM CDT 8:18 PM CDT
Moon 12:33 AM CDT (9/28) 3:09 PM CDT (9/28)
Length of Visible Light 12h 48m
Length of Day
11h 52m
Waning Crescent, 36% of the Moon is Illuminated
Sep 28
Waning Crescent
Oct 4
New
Oct 11
First Quarter
Oct 18
Full
Oct 26
Last Quarter

Hourly Weather History & Observations

Time (CDT) Temp. Heat Index Dew Point Humidity Pressure Visibility Wind Dir Wind Speed Gust Speed Precip Events Conditions
12:15 AM 61.9 °F - 49.1 °F 63% 30.04 in 10.0 mi SE 10.4 mph - N/A   Clear
12:35 AM 61.9 °F - 48.7 °F 62% 30.04 in 10.0 mi SE 10.4 mph - N/A   Clear
12:55 AM 60.8 °F - 48.7 °F 64% 30.03 in 10.0 mi SE 10.4 mph - N/A   Clear
1:15 AM 60.3 °F - 48.7 °F 66% 30.04 in 10.0 mi SSE 9.2 mph - N/A   Clear
1:35 AM 59.9 °F - 48.7 °F 67% 30.04 in 10.0 mi SSE 9.2 mph - N/A   Clear
1:55 AM 59.9 °F - 49.1 °F 67% 30.04 in 10.0 mi SSE 10.4 mph - N/A   Clear
2:15 AM 59.5 °F - 48.7 °F 67% 30.03 in 10.0 mi SSE 9.2 mph - N/A   Clear
2:35 AM 59.2 °F - 49.1 °F 69% 30.03 in 10.0 mi SSE 10.4 mph - N/A   Clear
2:55 AM 59.0 °F - 49.1 °F 70% 30.02 in 10.0 mi SSE 8.1 mph - N/A   Clear
3:15 AM 59.0 °F - 49.1 °F 70% 30.02 in 10.0 mi SSE 9.2 mph - N/A   Clear
3:35 AM 59.4 °F - 49.5 °F 70% 30.01 in 10.0 mi SSE 10.4 mph - N/A   Clear
3:55 AM 59.0 °F - 49.3 °F 70% 30.01 in 10.0 mi SSE 9.2 mph - N/A   Clear
4:15 AM 59.4 °F - 50.0 °F 71% 30.01 in 10.0 mi SSE 8.1 mph - N/A   Clear
4:35 AM 59.9 °F - 50.0 °F 70% 30.00 in 10.0 mi SSE 8.1 mph - N/A   Clear
4:55 AM 59.9 °F - 50.2 °F 70% 30.00 in 10.0 mi SSE 9.2 mph - N/A   Clear
5:15 AM 59.9 °F - 50.2 °F 70% 30.01 in 10.0 mi SSE 8.1 mph - N/A   Clear
5:35 AM 59.2 °F - 50.2 °F 72% 30.01 in 10.0 mi SE 9.2 mph - N/A   Clear
5:55 AM 57.2 °F - 54.5 °F 91% 30.01 in 10.0 mi SE 6.9 mph - N/A   Clear
6:15 AM 56.3 °F - 54.9 °F 95% 30.03 in 10.0 mi SSE 5.8 mph - N/A   Clear
6:35 AM 57.4 °F - 55.6 °F 94% 30.03 in 10.0 mi SSE 6.9 mph - N/A   Clear
6:55 AM 57.4 °F - 56.3 °F 96% 30.02 in 10.0 mi SSE 10.4 mph - N/A   Clear
7:15 AM 58.1 °F - 56.8 °F 96% 30.01 in 10.0 mi SSE 10.4 mph - N/A   Clear
7:35 AM 59.0 °F - 57.2 °F 94% 30.02 in 10.0 mi SSE 9.2 mph - N/A   Clear
7:55 AM 61.0 °F - 52.2 °F 73% 30.02 in 10.0 mi SSE 11.5 mph - N/A   Clear
8:15 AM 61.2 °F - 52.2 °F 72% 30.01 in 10.0 mi SSE 12.7 mph - N/A   Scattered Clouds
8:35 AM 62.8 °F - 52.5 °F 69% 30.01 in 10.0 mi SSE 12.7 mph 18.4 mph N/A   Scattered Clouds
8:55 AM 64.6 °F - 52.7 °F 65% 30.01 in 10.0 mi SSE 13.8 mph 21.9 mph N/A   Mostly Cloudy
9:15 AM 66.2 °F - 52.9 °F 62% 30.00 in 10.0 mi SSE 17.3 mph 20.7 mph N/A   Mostly Cloudy
9:35 AM 66.9 °F - 52.7 °F 60% 29.99 in 10.0 mi South 16.1 mph 20.7 mph N/A   Scattered Clouds
9:55 AM 69.3 °F - 53.6 °F 57% 29.99 in 10.0 mi South 16.1 mph 23.0 mph N/A   Scattered Clouds
10:15 AM 71.2 °F - 53.2 °F 53% 29.98 in 10.0 mi South 13.8 mph 24.2 mph N/A   Scattered Clouds
10:35 AM 72.0 °F - 54.0 °F 53% 29.97 in 10.0 mi South 18.4 mph 26.5 mph N/A   Scattered Clouds
10:55 AM 73.9 °F - 55.4 °F 52% 29.96 in 10.0 mi SSE 19.6 mph 27.6 mph N/A   Clear
11:15 AM 75.6 °F - 56.3 °F 51% 29.95 in 10.0 mi South 19.6 mph 25.3 mph N/A   Clear
11:35 AM 77.0 °F - 57.0 °F 50% 29.94 in 10.0 mi SSE 17.3 mph 26.5 mph N/A   Clear
11:55 AM 78.1 °F - 57.2 °F 49% 29.93 in 10.0 mi SSE 18.4 mph 26.5 mph N/A   Clear
12:15 PM 79.3 °F - 57.2 °F 47% 29.92 in 10.0 mi South 24.2 mph 32.2 mph N/A   Clear
12:35 PM 80.2 °F 80.5 °F 57.2 °F 45% 29.91 in 7.0 mi South 24.2 mph 35.7 mph N/A   Mostly Cloudy
12:55 PM 80.6 °F 80.8 °F 57.6 °F 45% 29.91 in 10.0 mi South 28.8 mph 34.5 mph N/A   Mostly Cloudy
1:15 PM 81.0 °F 81.2 °F 58.3 °F 46% 29.90 in 10.0 mi South 25.3 mph 34.5 mph N/A   Mostly Cloudy
1:35 PM 79.9 °F - 58.5 °F 48% 29.89 in 7.0 mi South 23.0 mph 31.1 mph N/A   Mostly Cloudy
1:55 PM 80.8 °F 81.1 °F 57.9 °F 46% 29.88 in 10.0 mi South 25.3 mph 34.5 mph N/A   Mostly Cloudy
2:15 PM 79.9 °F - 57.2 °F 46% 29.88 in 10.0 mi South 28.8 mph 35.7 mph N/A   Mostly Cloudy
2:35 PM 79.2 °F - 57.4 °F 47% 29.87 in 10.0 mi South 28.8 mph 35.7 mph N/A   Overcast
2:55 PM 78.8 °F - 57.0 °F 47% 29.87 in 10.0 mi South 27.6 mph 35.7 mph N/A   Overcast
3:15 PM 78.8 °F - 57.6 °F 48% 29.86 in 10.0 mi South 26.5 mph 34.5 mph N/A   Overcast
3:35 PM 78.4 °F - 58.1 °F 50% 29.86 in 10.0 mi South 20.7 mph 31.1 mph N/A   Overcast
3:55 PM 74.8 °F - 60.6 °F 61% 29.86 in 10.0 mi South 20.7 mph 28.8 mph N/A   Light Drizzle
4:15 PM 74.8 °F - 60.8 °F 62% 29.86 in 10.0 mi South 23.0 mph 32.2 mph N/A   Light Drizzle
4:35 PM 74.5 °F - 61.7 °F 64% 29.87 in 10.0 mi SSW 21.9 mph 32.2 mph N/A Rain Light Rain
4:55 PM 71.4 °F - 68.7 °F 91% 29.87 in 10.0 mi SSW 17.3 mph 25.3 mph N/A   Drizzle
5:15 PM 70.0 °F - 70.0 °F 100% 29.88 in 5.0 mi SSW 18.4 mph 25.3 mph N/A   Drizzle
5:35 PM - - - N/A% 29.88 in 5.0 mi SW 18.4 mph 25.3 mph 0.01 in   Overcast
5:55 PM - - - N/A% 29.88 in 1.8 mi SSW 16.1 mph 21.9 mph 0.03 in   Heavy Drizzle
6:15 PM - - - N/A% 29.88 in 1.8 mi SSW 18.4 mph 24.2 mph 0.01 in   Drizzle
6:35 PM - - - N/A% 29.88 in 4.0 mi SSW 16.1 mph 24.2 mph 0.01 in Rain Rain
6:55 PM - - - N/A% 29.88 in 3.0 mi SSW 16.1 mph 19.6 mph 0.04 in   Heavy Drizzle
7:15 PM - - - N/A% 29.88 in 4.0 mi WSW 18.4 mph 24.2 mph 0.01 in   Drizzle
7:35 PM - - - N/A% 29.90 in 10.0 mi WNW 12.7 mph 21.9 mph 0.02 in   Drizzle
7:55 PM - - - N/A% 29.90 in 7.0 mi West 12.7 mph 16.1 mph 0.03 in   Drizzle
8:15 PM - - - N/A% 29.92 in 5.0 mi West 12.7 mph 17.3 mph 0.02 in   Heavy Drizzle
8:35 PM - - - N/A% 29.93 in 5.0 mi WNW 11.5 mph 20.7 mph 0.06 in Rain Light Rain
8:55 PM - - - N/A% 29.93 in 7.0 mi NW 9.2 mph 17.3 mph 0.06 in   Light Drizzle
9:15 PM - - - N/A% 29.95 in 5.0 mi NW 12.7 mph 19.6 mph 0.03 in Rain Heavy Rain
9:35 PM - - - N/A% 29.96 in 3.0 mi NW 10.4 mph 23.0 mph 0.11 in Rain Heavy Rain
9:55 PM 56.7 °F - 56.7 °F 100% 29.96 in 10.0 mi WNW 9.2 mph - 0.12 in   Drizzle
10:15 PM 56.8 °F - 56.8 °F 100% 29.96 in 10.0 mi NW 6.9 mph - N/A Rain Light Rain
10:35 PM 56.3 °F - 56.3 °F 100% 29.97 in 10.0 mi NW 6.9 mph - 0.01 in   Overcast
10:55 PM 55.6 °F - 55.6 °F 100% 29.98 in 10.0 mi NW 4.6 mph - 0.01 in   Mostly Cloudy
11:15 PM - - - N/A% 29.98 in 10.0 mi NW 4.6 mph - N/A   Scattered Clouds
11:35 PM - - - N/A% 29.99 in 10.0 mi WNW 5.8 mph - N/A   Clear
11:55 PM - - - N/A% 29.99 in 10.0 mi WNW 8.1 mph - N/A   Clear